[[{"header":{"parameterUnit":"m.s-1","parameterCategory":1,"la1":30.2991,"la2":30.254,"lo1":-89.0895,"lo2":-89.0444,"dy":0.0017,"dx":0.0017,"nx":28,"ny":28,"refTime":"2023-11-01T03:00:00:Z","depth":0,"parameterNumber":2,"parameterNumberName":"U-component_of_WINDS"},"data":[0,0,0,0,0,0,0,0,0,0,0,0,0,0,0,0,0,0,0,0,0,0,0,0,0,0,0,0,0,0,0,0,0,0,0,0,0,0,0,0,0,0,0,0,0,0,0,0,0,0,0,0,0,0,0,0,0,0,-2.5558,-2.556,0,-2.5665,-2.5666,-2.5667,-2.5598,-2.5595,-2.5591,-2.5588,-2.5698,-2.5704,-2.571,0,0,0,0,0,0,0,0,0,0,0,0,0,-2.5295,-2.53,-2.5558,-2.556,-2.5561,-2.5665,-2.5666,-2.5667,-2.5598,-2.5595,-2.5591,-2.5587,-2.5696,-2.5703,-2.571,0,0,0,0,0,0,0,0,0,0,0,0,0,-2.5406,-2.5302,-2.5558,-2.5539,-2.5538,-2.5664,-2.5666,-2.5668,-2.5599,-2.5594,-2.559,-2.5585,-2.5694,-2.5702,-2.5711,-2.5862,0,0,-2.5738,-2.5742,0,0,0,0,0,0,0,0,-2.54,-2.5416,-2.5541,-2.5541,-2.554,-2.5613,-2.5613,-2.5733,-2.56,-2.5576,-2.5588,-2.5583,-2.5674,-2.5684,-2.5714,-2.5867,-2.5872,-2.5739,-2.5744,-2.5748,-2.5751,0,0,0,0,0,0,0,-2.5392,-2.5411,-2.56,-2.5542,-2.5542,-2.5525,-2.5535,-2.5636,-2.5651,-2.5578,-2.5573,-2.5587,-2.5673,-2.5706,-2.5717,-2.5873,-2.5739,-2.5747,-2.5752,-2.5756,-2.6154,-2.6159,0,0,0,0,0,0,-2.5386,-2.5405,-2.5597,-2.5604,-2.5457,-2.5534,-2.5545,-2.5595,-2.5649,-2.5653,-2.5591,-2.5583,-2.5693,-2.5706,-2.572,-2.5901,-2.5748,-2.5756,-2.5762,-2.6149,-2.6155,-2.6161,0,0,0,0,0,0,-2.5381,-2.5404,-2.5593,-2.5503,-2.5526,-2.5543,-2.5599,-2.5599,-2.5633,-2.5659,-2.5661,-2.5622,-2.569,-2.5708,-2.5827,-2.5903,-2.576,-2.5769,-2.6143,-2.6151,-2.6158,-2.6263,0,0,0,0,0,0,-2.5373,-2.5402,-2.546,-2.5505,-2.5531,-2.5699,-2.5604,-2.5605,-2.5648,-2.5639,-2.5689,-2.5693,-2.5688,-2.5814,-2.5836,-2.5913,-2.5775,-2.6136,-2.6146,-2.6155,-2.6252,-2.6273,-2.6291,0,0,0,0,0,-2.5364,-2.5486,-2.5464,-2.5487,-2.5604,-2.5703,-2.5718,-2.5709,-2.5654,-2.5713,-2.5729,-2.5691,-2.5891,-2.5827,-2.5851,-2.5932,-2.6131,-2.6143,-2.6155,-2.6244,-2.6269,-2.629,0,0,0,0,0,0,-2.5451,-2.5491,-2.5467,-2.5607,-2.5652,-2.5691,-2.5765,-2.5736,-2.5798,-2.5788,-2.5774,-2.5786,-2.5911,-2.5933,-2.5861,-2.608,-2.6002,-2.6019,-2.6062,-2.6086,-2.6105,-2.6098,-2.5783,0,0,0,0,0,-2.5486,-2.5563,-2.5594,-2.5715,-2.5738,-2.5748,-2.5791,-2.578,-2.5826,-2.5845,-2.5871,-2.5917,-2.599,-2.6039,-2.6107,-2.6254,-2.6264,-2.6321,-2.634,-2.6356,-2.6372,-2.6451,-2.6476,-2.62,-2.62,-2.6199,0,0,-2.556,-2.5591,-2.5642,-2.5733,-2.5767,-2.5847,-2.5765,-2.5853,-2.5913,-2.5859,-2.5973,-2.5993,-2.6044,-2.6178,-2.6238,-2.62,-2.645,-2.6371,-2.6383,-2.6391,-2.6465,-2.6492,-2.6515,-2.6208,-2.6206,-2.6205,0,0,-2.5736,-2.5768,-2.5871,-2.5906,-2.5958,-2.5963,-2.5987,-2.6031,-2.6042,-2.6156,-2.6117,-2.6187,-2.6313,-2.6351,-2.6387,-2.6574,-2.6542,-2.6597,-2.6698,-2.6775,-2.6797,-2.6816,-2.6884,-2.6908,-2.6612,-2.6612,-2.6612,0,-2.5822,-2.5942,-2.5928,-2.602,-2.6061,-2.6014,-2.6119,-2.6153,-2.6225,-2.6255,-2.621,-2.6367,-2.6398,-2.6539,-2.6585,-2.6615,-2.6643,-2.6592,-2.6794,-2.6814,-2.6832,-2.6896,-2.6922,-2.6618,-2.6618,-2.6617,-2.6616,0,-2.6045,-2.6129,-2.6206,-2.6276,-2.6325,-2.6423,-2.6424,-2.6475,-2.6459,-2.6469,-2.6585,-2.662,-2.6694,-2.6726,-2.6712,-2.6866,-2.6841,-2.6796,-2.6718,-2.6865,-2.6925,-2.695,-2.6628,-2.6625,-2.6623,-2.6622,0,0,-2.6282,-2.6341,-2.637,-2.6401,-2.6453,-2.6518,-2.6612,-2.6685,-2.673,-2.6779,-2.6859,-2.6965,-2.6924,-2.6964,-2.6953,-2.702,-2.7167,-2.6967,-2.6967,-2.7004,-2.7339,-2.7375,-2.7404,-2.7144,-2.7149,-2.7153,-2.7336,0,-2.6463,-2.6629,-2.6618,-2.6775,-2.6852,-2.6806,-2.6889,-2.693,-2.694,-2.7006,-2.7017,-2.7094,-2.7032,-2.7056,-2.712,-2.7136,-2.7235,-2.7122,-2.7219,-2.7223,-2.721,-2.7435,-2.7473,-2.7644,-2.7359,-2.7363,-2.7366,0,-2.6697,-2.6754,-2.6918,-2.6958,-2.699,-2.7064,-2.7129,-2.7193,-2.7237,-2.724,-2.7284,-2.7261,-2.7356,-2.7274,-2.7404,-2.7328,-2.7366,-2.7379,-2.7386,-2.7397,-2.7305,-2.7454,-2.7698,-2.7725,-2.7403,-2.74,-2.7397,0,-2.6855,-2.6973,-2.7087,-2.7114,-2.7163,-2.7216,-2.7239,-2.7278,-2.7322,-2.7378,-2.7406,-2.7473,-2.751,-2.7561,-2.7557,-2.7497,-2.769,-2.7607,-2.7695,-2.7696,-2.774,-2.7738,-2.7997,-2.7762,-2.7761,-2.7761,-2.776,0,-2.7059,-2.7162,-2.7158,-2.7229,-2.7341,-2.7327,-2.7439,-2.7455,-2.7491,-2.7563,-2.7526,-2.7595,-2.7583,-2.7651,-2.7647,-2.7757,-2.7773,-2.7778,-2.7777,-2.7783,-2.7783,-2.781,-2.7799,-2.7768,-2.7766,-2.7765,-2.7764,0,-2.7257,-2.7259,-2.7379,-2.7415,-2.7426,-2.7508,-2.7538,-2.7603,-2.7609,-2.7701,-2.7721,-2.7731,-2.7809,-2.7809,-2.7898,-2.7895,-2.8029,-2.8013,-2.8015,-2.8012,-2.8101,-2.8094,-2.8388,-2.8426,-2.8165,-2.8167,-2.8169,0,-2.7389,-2.7466,-2.7509,-2.7555,-2.7581,-2.7655,-2.7699,-2.7686,-2.7734,-2.7789,-2.7848,-2.7922,-2.7982,-2.8108,-2.8123,-2.8191,-2.8177,-2.8275,-2.8187,-2.8191,-2.818,-2.8176,-2.8184,-2.8294,-2.8296,-2.8299,-2.8301,0,-2.7622,-2.7618,-2.7684,-2.7749,-2.7802,-2.7853,-2.79,-2.7939,-2.7931,-2.7986,-2.8065,-2.8111,-2.8201,-2.8276,-2.834,-2.8362,-2.8331,-2.8328,-2.8352,-2.8361,-2.8359,-2.8363,-2.8064,-2.8322,-2.832,-2.8318,-2.8317,-2.8316,-2.7792,-2.7859,-2.7899,-2.7973,-2.8006,-2.805,-2.8113,-2.8127,-2.8192,-2.8265,-2.8253,-2.8341,-2.8382,-2.8465,-2.8493,-2.8562,-2.8527,-2.8562,-2.8571,-2.8581,-2.8591,-2.8346,-2.8573,-2.8572,-2.8572,-2.8571,-2.8571,0,-2.8025,-2.8048,-2.8116,-2.8182,-2.8239,-2.8202,-2.8251,-2.8302,-2.8381,-2.8421,-2.8479,-2.8569,-2.8641,-2.866,-2.8729,-2.878,-2.8767,-2.8798,-2.8796,-2.8802,-2.8618,-2.8591,-2.8808,-2.8808,-2.8808,-2.8808,-2.8807,-2.8807,-2.8153,-2.8264,-2.8265,-2.8392,-2.8414,-2.8501,-2.8532,-2.8572,-2.8604,-2.8706,-2.8765,-2.8777,-2.8809,-2.8879,-2.8942,-2.8946,-2.8973,-2.9011,-2.9009,-2.8838,-2.8814,-2.8792,-2.8766,-2.9017,-2.9017,-2.9188,-2.9189,-2.919]},{"header":{"parameterUnit":"m.s-1","parameterCategory":1,"la1":30.2991,"la2":30.254,"lo1":-89.0895,"lo2":-89.0444,"dy":0.0017,"dx":0.0017,"nx":28,"ny":28,"refTime":"2023-11-01T03:00:00:Z","depth":0,"parameterNumber":3,"parameterNumberName":"V-component_of_WINDS"},"data":[0,0,0,0,0,0,0,0,0,0,0,0,0,0,0,0,0,0,0,0,0,0,0,0,0,0,0,0,0,0,0,0,0,0,0,0,0,0,0,0,0,0,0,0,0,0,0,0,0,0,0,0,0,0,0,0,0,0,-8.9322,-8.9324,0,-8.949,-8.9492,-8.9493,-8.9374,-8.9368,-8.9363,-8.9358,-8.9522,-8.9531,-8.954,0,0,0,0,0,0,0,0,0,0,0,0,0,-8.8889,-8.8898,-8.9322,-8.9324,-8.9326,-8.9489,-8.9492,-8.9494,-8.9375,-8.9368,-8.9362,-8.9356,-8.9519,-8.9529,-8.9541,0,0,0,0,0,0,0,0,0,0,0,0,0,-8.9069,-8.8901,-8.9322,-8.9287,-8.9285,-8.9489,-8.9492,-8.9494,-8.9376,-8.9368,-8.936,-8.9353,-8.9515,-8.9528,-8.9542,-8.9787,0,0,-8.9585,-8.9591,0,0,0,0,0,0,0,0,-8.9059,-8.9085,-8.929,-8.9289,-8.9288,-8.9403,-8.9399,-8.9592,-8.9378,-8.9341,-8.9358,-8.9349,-8.9488,-8.9504,-8.9552,-8.9795,-8.9802,-8.9586,-8.9594,-8.96,-8.9604,0,0,0,0,0,0,0,-8.9047,-8.9077,-8.9388,-8.9293,-8.9292,-8.9259,-8.9276,-8.9435,-8.9457,-8.9344,-8.9336,-8.9357,-8.9486,-8.9539,-8.9555,-8.9804,-8.9586,-8.9598,-8.9607,-8.9612,-9.0253,-9.0261,0,0,0,0,0,0,-8.9039,-8.9067,-8.9383,-8.9393,-8.9152,-8.9274,-8.9292,-8.9374,-8.9455,-8.946,-8.9364,-8.9351,-8.9519,-8.9539,-8.956,-8.9852,-8.96,-8.9613,-8.9621,-9.0245,-9.0255,-9.0264,0,0,0,0,0,0,-8.903,-8.9068,-8.9376,-8.9228,-8.9265,-8.929,-8.9382,-8.9381,-8.9434,-8.947,-8.9473,-8.9415,-8.9514,-8.9541,-8.9732,-8.9855,-8.962,-8.9632,-9.0234,-9.0248,-9.026,-9.0437,0,0,0,0,0,0,-8.9018,-8.9065,-8.9161,-8.9231,-8.9273,-8.9548,-8.939,-8.939,-8.946,-8.9445,-8.9519,-8.9523,-8.951,-8.9712,-8.9746,-8.987,-8.9643,-9.0223,-9.024,-9.0256,-9.042,-9.0454,-9.0483,0,0,0,0,0,-8.9003,-8.9203,-8.9167,-8.9206,-8.9394,-8.9555,-8.9579,-8.9562,-8.947,-8.9565,-8.9588,-8.9521,-8.9836,-8.9732,-8.9769,-8.99,-9.0215,-9.0235,-9.0254,-9.0406,-9.0447,-9.0483,0,0,0,0,0,0,-8.9144,-8.9212,-8.9172,-8.9402,-8.9474,-8.9535,-8.9654,-8.9607,-8.9704,-8.9686,-8.9657,-8.9675,-8.9875,-8.9906,-8.9789,-9.014,-9.0011,-9.0039,-9.0113,-9.0153,-9.0184,-9.0172,-8.9655,0,0,0,0,0,-8.9203,-8.9331,-8.9381,-8.9579,-8.9617,-8.963,-8.97,-8.968,-8.9753,-8.9782,-8.9818,-8.9889,-9.0003,-9.008,-9.0187,-9.0423,-9.0436,-9.0531,-9.0563,-9.0589,-9.0613,-9.0738,-9.0781,-9.0329,-9.0328,-9.0328,0,0,-8.9324,-8.9376,-8.9459,-8.9609,-8.9663,-8.9793,-8.9657,-8.9801,-8.9896,-8.9803,-8.9986,-9.0015,-9.0091,-9.0306,-9.0402,-9.0338,-9.0741,-9.0614,-9.0634,-9.0645,-9.0763,-9.0806,-9.0844,-9.0342,-9.0339,-9.0337,0,0,-8.9612,-8.9665,-8.9835,-8.9892,-8.9976,-8.9983,-9.0023,-9.0092,-9.0108,-9.0292,-9.0224,-9.0335,-9.0534,-9.0591,-9.0646,-9.0954,-9.0895,-9.0989,-9.1155,-9.1278,-9.1313,-9.1345,-9.1453,-9.1493,-9.1013,-9.1014,-9.1014,0,-8.9751,-8.9948,-8.9928,-9.0078,-9.0144,-9.0067,-9.0237,-9.0292,-9.0406,-9.0453,-9.038,-9.0627,-9.0673,-9.0899,-9.0974,-9.1021,-9.1065,-9.0981,-9.131,-9.1342,-9.137,-9.1474,-9.1515,-9.1025,-9.1023,-9.1022,-9.1021,0,-9.0115,-9.0252,-9.0379,-9.0493,-9.0574,-9.0733,-9.0734,-9.0817,-9.079,-9.0803,-9.0989,-9.1042,-9.1158,-9.121,-9.1184,-9.1432,-9.139,-9.1315,-9.1184,-9.1425,-9.1521,-9.1561,-9.104,-9.1036,-9.1033,-9.103,0,0,-9.0498,-9.0599,-9.0645,-9.0696,-9.0782,-9.0886,-9.104,-9.1156,-9.1228,-9.1307,-9.1434,-9.1604,-9.1534,-9.1597,-9.1576,-9.1683,-9.1922,-9.1594,-9.1595,-9.1653,-9.2197,-9.2253,-9.2299,-9.1883,-9.1891,-9.1897,-9.219,0,-9.079,-9.1062,-9.1047,-9.1301,-9.1426,-9.1354,-9.1487,-9.1553,-9.1569,-9.1675,-9.169,-9.1811,-9.1711,-9.1748,-9.1851,-9.1872,-9.2031,-9.185,-9.1999,-9.2004,-9.1983,-9.235,-9.2411,-9.2685,-9.2228,-9.2234,-9.2239,0,-9.1167,-9.1263,-9.1531,-9.1597,-9.1649,-9.177,-9.1874,-9.1977,-9.2048,-9.2052,-9.2122,-9.2083,-9.2234,-9.21,-9.2307,-9.2185,-9.2244,-9.2263,-9.2273,-9.2286,-9.2137,-9.2373,-9.2772,-9.2813,-9.2298,-9.2293,-9.2289,0,-9.142,-9.1615,-9.18,-9.1845,-9.1927,-9.2013,-9.2051,-9.2114,-9.2185,-9.2274,-9.2319,-9.2424,-9.2482,-9.2563,-9.2552,-9.2456,-9.2763,-9.2628,-9.2768,-9.2769,-9.2837,-9.2833,-9.3251,-9.2875,-9.2875,-9.2874,-9.2873,0,-9.1747,-9.1914,-9.1914,-9.2028,-9.2211,-9.219,-9.237,-9.2398,-9.2455,-9.257,-9.2512,-9.2621,-9.26,-9.2707,-9.2699,-9.2871,-9.2898,-9.2903,-9.2899,-9.2909,-9.2908,-9.2947,-9.2928,-9.2885,-9.2882,-9.288,-9.2878,0,-9.2061,-9.2068,-9.2265,-9.2326,-9.2345,-9.2477,-9.2528,-9.2634,-9.2644,-9.2791,-9.2824,-9.284,-9.2963,-9.296,-9.31,-9.3094,-9.3306,-9.3279,-9.3283,-9.3277,-9.3418,-9.3405,-9.3876,-9.3937,-9.3522,-9.3526,-9.3529,0,-9.227,-9.2396,-9.2472,-9.2546,-9.259,-9.271,-9.2782,-9.2765,-9.2841,-9.2931,-9.3026,-9.3144,-9.3239,-9.3438,-9.346,-9.3566,-9.3542,-9.37,-9.3557,-9.3563,-9.3544,-9.3536,-9.3548,-9.3728,-9.3732,-9.3736,-9.3739,0,-9.264,-9.2637,-9.2744,-9.2853,-9.2941,-9.3025,-9.3102,-9.3166,-9.3156,-9.3244,-9.3372,-9.3445,-9.3588,-9.3705,-9.3807,-9.3841,-9.3789,-9.3784,-9.3822,-9.3833,-9.383,-9.3833,-9.3359,-9.3773,-9.377,-9.3767,-9.3765,-9.3764,-9.2907,-9.3016,-9.3086,-9.3207,-9.3263,-9.3336,-9.3439,-9.3463,-9.3569,-9.3687,-9.3669,-9.381,-9.3875,-9.4006,-9.405,-9.4158,-9.4102,-9.4157,-9.4171,-9.4185,-9.4201,-9.3813,-9.4176,-9.4175,-9.4174,-9.4173,-9.4173,0,-9.3274,-9.3315,-9.3427,-9.3538,-9.3632,-9.3576,-9.3658,-9.374,-9.3866,-9.3933,-9.4027,-9.4171,-9.4284,-9.4315,-9.4424,-9.4504,-9.4482,-9.4533,-9.4527,-9.4535,-9.4245,-9.4201,-9.4549,-9.4549,-9.4548,-9.4548,-9.4548,-9.4548,-9.3476,-9.3657,-9.3662,-9.3868,-9.3907,-9.4048,-9.4099,-9.4165,-9.4218,-9.4383,-9.4478,-9.4498,-9.4549,-9.4661,-9.4761,-9.4766,-9.4809,-9.4869,-9.4865,-9.4594,-9.4556,-9.452,-9.4479,-9.4879,-9.4879,-9.5147,-9.5149,-9.5151]}]]